Weather History for KCPC - November, 2013

Change the Weather History Date:

Saturday, November 2, 2013

  Actual Average (KLBT) Record (KLBT)
Temperature  
Mean Temperature 61 °F 58 °F  
Max Temperature 70 °F 71 °F 84 °F (2004)
Min Temperature 51 °F 45 °F 31 °F (2012)
Degree Days  
Heating Degree Days 4 8  
Month to date heating degree days 16  
Since 1 July heating degree days 148  
Cooling Degree Days 0 1  
Month to date cooling degree days 2  
Year to date cooling degree days 1896  
Growing Degree Days 11 (Base 50)    
Moisture  
Dew Point 57 °F    
Average Humidity 81    
Maximum Humidity 96    
Minimum Humidity 51    
Precipitation  
Precipitation 0.60 in 0.07 in 0.89 in (1999)
Month to date precipitation 0.15  
Year to date precipitation 37.91  
Sea Level Pressure  
Sea Level Pressure 29.79 in    
Wind  
Wind Speed 3 mph (WSW)    
Max Wind Speed 8 mph    
Max Gust Speed -    
Visibility 10 miles    
Events Rain    
T = Trace of Precipitation, MM = Missing Value Source: NWS Daily Summary

Daily Weather History Graph

Daily Weather History Graph

Search for Another Location

Airport or City:

Trip Planner

Search our weather history database for the weather conditions in past years. The results will help you decide how hot, cold, wet, or windy it might be!

Date:

Astronomy

Nov. 02, 2013 Rise Set
Actual Time 7:35 AM EDT 6:20 PM EDT
Civil Twilight 7:09 AM EDT 6:46 PM EDT
Nautical Twilight 6:40 AM EDT 7:16 PM EDT
Astronomical Twilight 6:10 AM EDT 7:45 PM EDT
Moon 6:33 AM EDT (11/2) 5:49 PM EDT (11/2)
Length of Visible Light 11h 36m
Length of Day
10h 44m
Waning Crescent, 1% of the Moon is Illuminated
Nov 2
Waning Crescent
Nov 3
New
Nov 10
First Quarter
Nov 17
Full
Nov 25
Last Quarter

Hourly Weather History & Observations

Time (EDT) Temp. Dew Point Humidity Pressure Visibility Wind Dir Wind Speed Gust Speed Precip Events Conditions
12:15 AM 68.4 °F 67.1 °F 96% 29.75 in 7.0 mi SW 6.9 mph - 0.02 in Rain Rain
12:35 AM 68.4 °F 67.1 °F 96% 29.74 in 4.0 mi SW 5.8 mph - 0.33 in Rain Heavy Rain
12:55 AM 68.2 °F 66.6 °F 95% 29.74 in 5.0 mi SSW 5.8 mph - 0.37 in Rain Rain
1:15 AM 68.0 °F 65.8 °F 93% 29.75 in 5.0 mi SW 8.1 mph - 0.03 in Rain Heavy Rain
1:35 AM 67.5 °F 66.2 °F 96% 29.74 in 3.0 mi SW 4.6 mph - 0.15 in Rain Heavy Rain
1:55 AM 67.1 °F 65.7 °F 95% 29.72 in 5.0 mi WSW 6.9 mph - 0.22 in Rain Rain
2:15 AM 66.7 °F 64.6 °F 93% 29.73 in 10.0 mi SW 5.8 mph - N/A   Overcast
2:35 AM 66.4 °F 64.0 °F 92% 29.73 in 10.0 mi SW 6.9 mph - N/A   Mostly Cloudy
2:55 AM 66.2 °F 63.9 °F 92% 29.74 in 10.0 mi WSW 3.5 mph - N/A Rain Light Rain
3:15 AM 65.8 °F 64.0 °F 94% 29.73 in 10.0 mi SW 4.6 mph - 0.01 in Rain Light Rain
3:35 AM 65.7 °F 63.9 °F 94% 29.72 in 10.0 mi SW 3.5 mph - 0.01 in Rain Light Rain
3:55 AM 65.3 °F 63.7 °F 94% 29.72 in 10.0 mi Calm Calm - 0.01 in   Light Drizzle
4:15 AM 65.3 °F 63.7 °F 94% 29.72 in 10.0 mi Calm Calm - N/A Rain Light Rain
4:35 AM 65.3 °F 63.7 °F 94% 29.73 in 10.0 mi SW 3.5 mph - N/A   Scattered Clouds
4:55 AM 65.3 °F 63.9 °F 95% 29.74 in 10.0 mi WSW 3.5 mph - N/A   Mostly Cloudy
5:15 AM 65.3 °F 63.9 °F 95% 29.74 in 10.0 mi West 3.5 mph - N/A   Overcast
5:35 AM 64.8 °F 62.1 °F 91% 29.74 in 10.0 mi West 4.6 mph - N/A   Scattered Clouds
5:55 AM 63.9 °F 61.5 °F 92% 29.74 in 10.0 mi West 3.5 mph - N/A   Clear
6:15 AM 63.5 °F 61.3 °F 93% 29.75 in 10.0 mi Calm Calm - N/A   Scattered Clouds
6:35 AM 63.0 °F 60.4 °F 91% 29.75 in 10.0 mi West 3.5 mph - N/A   Mostly Cloudy
6:55 AM 62.1 °F 59.5 °F 91% 29.75 in 10.0 mi Calm Calm - N/A   Scattered Clouds
7:15 AM 61.7 °F 59.7 °F 93% 29.76 in 10.0 mi Calm Calm - N/A   Clear
7:35 AM 61.5 °F 59.2 °F 92% 29.77 in 10.0 mi Calm Calm - N/A   Scattered Clouds
7:55 AM 61.0 °F 59.2 °F 94% 29.77 in 7.0 mi Calm Calm - N/A   Scattered Clouds
8:15 AM 61.3 °F 59.2 °F 93% 29.78 in 10.0 mi Calm Calm - N/A   Clear
8:35 AM 61.5 °F 59.2 °F 92% 29.78 in 10.0 mi Calm Calm - N/A   Scattered Clouds
8:55 AM 61.9 °F 59.4 °F 91% 29.80 in 10.0 mi WSW 3.5 mph - N/A   Clear
9:15 AM 61.9 °F 59.5 °F 92% 29.78 in 10.0 mi WNW 3.5 mph - N/A   Clear
9:35 AM 62.6 °F 59.9 °F 91% 29.80 in 10.0 mi Calm Calm - N/A   Scattered Clouds
9:55 AM 63.0 °F 59.9 °F 90% 29.80 in 10.0 mi West 3.5 mph - N/A   Mostly Cloudy
10:15 AM 63.5 °F 59.9 °F 88% 29.81 in 10.0 mi Calm Calm - N/A   Mostly Cloudy
10:35 AM 63.9 °F 60.1 °F 87% 29.81 in 10.0 mi WSW 3.5 mph - N/A   Mostly Cloudy
10:55 AM 63.7 °F 59.7 °F 87% 29.80 in 10.0 mi West 3.5 mph - N/A   Mostly Cloudy
11:15 AM 63.9 °F 59.4 °F 85% 29.80 in 10.0 mi WSW 3.5 mph - N/A   Mostly Cloudy
11:35 AM 64.9 °F 59.5 °F 83% 29.81 in 10.0 mi West 3.5 mph - N/A   Scattered Clouds
11:55 AM 66.0 °F 59.5 °F 80% 29.81 in 10.0 mi West 4.6 mph - N/A   Scattered Clouds
1:15 PM 68.4 °F 55.8 °F 64% 29.77 in 10.0 mi North 3.5 mph - N/A   Clear
1:35 PM 69.6 °F 55.4 °F 61% 29.77 in 10.0 mi Calm Calm - N/A   Clear
1:55 PM 69.6 °F 54.9 °F 59% 29.77 in 10.0 mi Calm Calm - N/A   Clear
2:15 PM 70.0 °F 53.8 °F 56% 29.77 in 10.0 mi Calm Calm - N/A   Clear
2:35 PM 70.3 °F 53.2 °F 55% 29.76 in 10.0 mi West 3.5 mph - N/A   Clear
2:55 PM 70.0 °F 53.4 °F 56% 29.76 in 10.0 mi West 5.8 mph - N/A   Clear
3:15 PM 69.8 °F 54.0 °F 57% 29.76 in 10.0 mi Calm Calm - N/A   Clear
3:35 PM 69.8 °F 54.1 °F 57% 29.75 in 10.0 mi West 3.5 mph - N/A   Clear
3:55 PM 69.1 °F 54.0 °F 58% 29.75 in 10.0 mi West 3.5 mph - N/A   Clear
4:15 PM 69.6 °F 53.8 °F 57% 29.75 in 10.0 mi Calm Calm - N/A   Clear
4:35 PM 70.9 °F 54.1 °F 55% 29.76 in 10.0 mi WSW 5.8 mph - N/A   Clear
4:55 PM 70.5 °F 51.4 °F 51% 29.76 in 10.0 mi West 5.8 mph - N/A   Clear
5:15 PM 70.0 °F 51.1 °F 51% 29.77 in 10.0 mi Calm Calm - N/A   Clear
5:35 PM 69.1 °F 50.5 °F 52% 29.78 in 10.0 mi Calm Calm - N/A   Clear
5:55 PM 65.8 °F 52.3 °F 62% 29.78 in 10.0 mi Calm Calm - N/A   Clear
6:15 PM 63.7 °F 53.8 °F 70% 29.78 in 10.0 mi Calm Calm - N/A   Clear
6:35 PM 61.7 °F 55.2 °F 79% 29.80 in 10.0 mi Calm Calm - N/A   Clear
6:55 PM 60.8 °F 54.7 °F 80% 29.80 in 10.0 mi Calm Calm - N/A   Clear
7:15 PM 60.3 °F 53.8 °F 79% 29.81 in 10.0 mi Calm Calm - N/A   Clear
7:35 PM 60.1 °F 54.0 °F 80% 29.82 in 10.0 mi Calm Calm - N/A   Clear
7:55 PM 59.5 °F 53.6 °F 81% 29.83 in 10.0 mi Calm Calm - N/A   Clear
8:15 PM 58.1 °F 53.2 °F 84% 29.84 in 10.0 mi Calm Calm - N/A   Clear
8:35 PM 57.7 °F 53.2 °F 85% 29.85 in 10.0 mi Calm Calm - N/A   Clear
8:55 PM 59.5 °F 51.6 °F 75% 29.87 in 10.0 mi WNW 4.6 mph - N/A   Scattered Clouds
9:15 PM 60.4 °F 47.8 °F 63% 29.88 in 10.0 mi WNW 4.6 mph - N/A   Scattered Clouds
9:35 PM 59.7 °F 47.1 °F 63% 29.89 in 10.0 mi Calm Calm - N/A   Clear
9:55 PM 58.8 °F 47.1 °F 65% 29.90 in 10.0 mi Calm Calm - N/A   Clear
10:15 PM 56.1 °F 49.1 °F 77% 29.91 in 10.0 mi Calm Calm - N/A   Scattered Clouds
10:35 PM 54.7 °F 49.1 °F 81% 29.91 in 10.0 mi Calm Calm - N/A   Scattered Clouds
10:55 PM 54.1 °F 49.6 °F 85% 29.92 in 10.0 mi Calm Calm - N/A   Scattered Clouds
11:15 PM 53.1 °F 49.1 °F 86% 29.93 in 10.0 mi Calm Calm - N/A   Clear
11:35 PM 52.5 °F 48.6 °F 86% 29.93 in 10.0 mi Calm Calm - N/A   Scattered Clouds
11:55 PM 51.8 °F 48.6 °F 89% 29.94 in 10.0 mi Calm Calm - N/A   Scattered Clouds